Williamtown, Australia

4:37 PM AEST on April 29, 2017 (GMT +1000)
Williamtown Military

Weather History for YWLM - October, 2013

Change the Weather History Date:

Tuesday, October 22, 2013

  Actual Average Record
Temperature  
Mean Temperature 70 °F -  
Max Temperature 79 °F - - ()
Min Temperature 61 °F - - ()
Cooling Degree Days 5    
Growing Degree Days 20 (Base 50)    
Moisture  
Dew Point 63 °F    
Average Humidity 75    
Maximum Humidity 94    
Minimum Humidity 53    
Precipitation  
Precipitation 0.00 in - - ()
Sea Level Pressure  
Sea Level Pressure 29.91 in    
Wind  
Wind Speed 7 mph ()    
Max Wind Speed 18 mph    
Max Gust Speed -    
Visibility 6.1 miles    
Events      
T = Trace of Precipitation, MM = Missing Value Source: Averaged Metar Reports

Daily Weather History Graph

Daily Weather History Graph

Search for Another Location

Airport or City:

Trip Planner

Search our weather history database for the weather conditions in past years. The results will help you decide how hot, cold, wet, or windy it might be!

Date:

Astronomy

Oct. 22, 2013 Rise Set
Actual Time 6:04 AM AEDT 7:10 PM AEDT
Civil Twilight 5:39 AM AEDT 7:35 PM AEDT
Nautical Twilight 5:08 AM AEDT 8:06 PM AEDT
Astronomical Twilight 4:37 AM AEDT 8:37 PM AEDT
Moon 10:14 PM AEDT (10/22) 8:04 AM AEDT (10/22)
Length of Visible Light 13h 56m
Length of Day
13h 05m
Waning Gibbous, 91% of the Moon is Illuminated
Oct 22
Waning Gibbous
Oct 27
Last Quarter
Nov 3
New
Nov 10
First Quarter
Nov 18
Full

Hourly Weather History & Observations

Time (AEDT) Temp. Dew Point Humidity Pressure Visibility Wind Dir Wind Speed Gust Speed Precip Events Conditions
12:00 AM 67 °F 56 °F 59% 29.92 in - NE 1.2 mph - -  
12:00 AM 68.0 °F 55.4 °F 64% 29.92 in 6.2 mi NE 1.2 mph - N/A   Unknown
12:30 AM 68.0 °F 55.4 °F 64% 29.89 in 6.2 mi NNE 4.6 mph - N/A   Unknown
1:00 AM 68.0 °F 57.2 °F 68% 29.89 in 6.2 mi Calm Calm - N/A   Unknown
1:30 AM 66.2 °F 57.2 °F 73% 29.89 in 6.2 mi NE 3.5 mph - N/A   Unknown
2:00 AM 65 °F 57 °F 68% 29.90 in - ENE 2.3 mph - -  
2:00 AM 66.2 °F 57.2 °F 73% 29.89 in 6.2 mi ENE 2.3 mph - N/A   Unknown
2:30 AM 64.4 °F 57.2 °F 77% 29.89 in 6.2 mi NE 3.5 mph - N/A   Unknown
3:00 AM 67 °F 58 °F 65% 29.90 in - NNE 5.8 mph - -  
3:00 AM 66.2 °F 57.2 °F 73% 29.89 in 6.2 mi NNE 5.8 mph - N/A   Unknown
3:30 AM 66.2 °F 57.2 °F 73% 29.89 in 6.2 mi NNE 5.8 mph - N/A   Unknown
4:00 AM 64.4 °F 57.2 °F 77% 29.89 in 6.2 mi SW 15.0 mph - N/A   Unknown
4:30 AM 66.2 °F 60.8 °F 83% 29.89 in 6.2 mi South 6.9 mph - N/A   Unknown
5:00 AM 66 °F 63 °F 85% 29.91 in - South 6.9 mph - -  
5:00 AM 66.2 °F 62.6 °F 88% 29.89 in 5.6 mi South 6.9 mph - N/A   Unknown
5:30 AM 66.2 °F 62.6 °F 88% 29.92 in 6.2 mi SSW 4.6 mph - N/A   Unknown
6:00 AM 63 °F 61 °F 89% 29.93 in 6 mi Calm Calm - -  
6:00 AM 62.6 °F 60.8 °F 94% 29.92 in - Calm Calm - N/A   Clear
6:30 AM 62.6 °F 60.8 °F 94% 29.92 in - Calm Calm - N/A   Clear
7:00 AM 64.4 °F 62.6 °F 94% 29.92 in 6.2 mi Calm Calm - N/A   Scattered Clouds
7:30 AM 68.0 °F 64.4 °F 88% 29.95 in 6.2 mi South 8.1 mph - N/A   Scattered Clouds
8:00 AM 71 °F 64 °F 72% 29.96 in - South 11.5 mph - -  
8:00 AM 71.6 °F 64.4 °F 78% 29.95 in 6.2 mi South 11.5 mph - N/A   Scattered Clouds
8:30 AM 71.6 °F 64.4 °F 78% 29.98 in 6.2 mi SSW 16.1 mph - N/A   Scattered Clouds
8:50 AM 71.6 °F 64.4 °F 78% 29.98 in 6.2 mi South 16.1 mph - N/A   Mostly Cloudy
9:00 AM 73 °F 64 °F 66% 30.00 in - South 18.4 mph - -  
9:00 AM 73.4 °F 64.4 °F 73% 29.98 in 6.2 mi South 18.4 mph - N/A   Mostly Cloudy
9:30 AM 73.4 °F 64.4 °F 73% 29.98 in 6.2 mi South 13.8 mph - N/A   Scattered Clouds
9:52 AM 73.4 °F 64.4 °F 73% 29.98 in 6.2 mi South 16.1 mph - N/A   Scattered Clouds
9:58 AM 73.4 °F 64.4 °F 73% 29.98 in 6.2 mi South 16.1 mph - N/A   Mostly Cloudy
10:30 AM 73.4 °F 64.4 °F 73% 29.98 in 6.2 mi South 17.3 mph - N/A   Scattered Clouds
10:37 AM 75.2 °F 64.4 °F 69% 29.98 in 6.2 mi South 16.1 mph - N/A   Scattered Clouds
11:00 AM 76 °F 64 °F 57% 29.99 in - South 12.7 mph - -  
11:00 AM 77.0 °F 64.4 °F 65% 29.98 in 6.2 mi South 12.7 mph - N/A   Scattered Clouds
11:30 AM 77.0 °F 64.4 °F 65% 29.98 in - SSE 15.0 mph - N/A   Clear
12:00 PM 77 °F 64 °F 55% 29.98 in - South 11.5 mph - -  
12:00 PM 77.0 °F 64.4 °F 65% 29.95 in 6.2 mi South 11.5 mph - N/A   Unknown
12:30 PM 77.0 °F 64.4 °F 65% 29.95 in - SSE 13.8 mph - N/A   Clear
1:00 PM 77.0 °F 64.4 °F 65% 29.95 in - SSE 12.7 mph - N/A   Clear
1:30 PM 77.0 °F 64.4 °F 65% 29.95 in - SSE 13.8 mph - N/A   Clear
2:00 PM 77 °F 65 °F 57% 29.93 in - SE 15.0 mph - -  
2:00 PM 77.0 °F 64.4 °F 65% 29.92 in - SE 15.0 mph - N/A   Clear
2:30 PM 77.0 °F 64.4 °F 65% 29.92 in - ESE 12.7 mph - N/A   Clear
3:00 PM 77 °F 63 °F 53% 29.91 in - ESE 15.0 mph - -  
3:00 PM 77.0 °F 62.6 °F 61% 29.89 in - ESE 15.0 mph - N/A   Clear
3:30 PM 78.8 °F 62.6 °F 57% 29.89 in - East 9.2 mph - N/A   Clear
4:00 PM 78.8 °F 62.6 °F 57% 29.86 in - SE 11.5 mph - N/A   Clear
4:30 PM 78.8 °F 64.4 °F 61% 29.86 in - ESE 10.4 mph - N/A   Clear
5:00 PM 79 °F 65 °F 55% 29.86 in - ENE 11.5 mph - -  
5:00 PM 78.8 °F 66.2 °F 65% 29.86 in - ENE 11.5 mph - N/A   Clear
5:30 PM 77.0 °F 64.4 °F 65% 29.86 in - NE 10.4 mph - N/A   Clear
6:00 PM 75.2 °F 64.4 °F 69% 29.86 in - ENE 6.9 mph - N/A   Clear
6:30 PM 73.4 °F 66.2 °F 78% 29.86 in - East 8.1 mph - N/A   Clear
7:00 PM 71.6 °F 66.2 °F 83% 29.86 in - ESE 6.9 mph - N/A   Clear
7:30 PM 69.8 °F 66.2 °F 88% 29.86 in - ESE 8.1 mph - N/A   Clear
8:00 PM 69 °F 66 °F 86% 29.88 in - SE 5.8 mph - -  
8:00 PM 69.8 °F 66.2 °F 88% 29.86 in - SE 5.8 mph - N/A   Clear
8:30 PM 69.8 °F 66.2 °F 88% 29.89 in - SSE 4.6 mph - N/A   Clear
9:00 PM 69 °F 65 °F 85% 29.89 in - SE 5.8 mph - -  
9:00 PM 68.0 °F 66.2 °F 94% 29.89 in 5.6 mi SE 5.8 mph - N/A   Mostly Cloudy
9:30 PM 68.0 °F 66.2 °F 94% 29.86 in 5.6 mi East 5.8 mph - N/A   Mostly Cloudy
10:00 PM 68.0 °F 66.2 °F 94% 29.83 in 5.6 mi East 6.9 mph - N/A   Mostly Cloudy
10:30 PM 68.0 °F 66.2 °F 94% 29.83 in 6.2 mi NE 6.9 mph - N/A   Unknown
11:00 PM 69 °F 65 °F 84% 29.83 in - ENE 9.2 mph - -  
11:00 PM 68.0 °F 66.2 °F 94% 29.83 in 6.2 mi ENE 9.2 mph - N/A   Unknown
11:30 PM 68.0 °F 66.2 °F 94% 29.80 in 6.2 mi ENE 9.2 mph - N/A   Unknown